Theta_e
310 311 312 311 313 316 317 316 316 315 314 314 312 312 313 313 314 315 316 315 309 303 299 297 297 296 296 297 298 298 298 297 297 298 298 299 299 298 298 298 297 297
310 311 313 314 314 315 316 315 313 312 313 313 313 311 311 312 313 315 315 312 306 301 298 296 296 296 296 297 297 298 297 297 298 298 298 298 298 298 298 297 297 297
310 311 314 316 316 316 315 313 312 312 313 314 312 311 310 310 312 314 313 309 304 299 297 296 296 295 296 296 297 297 297 297 298 298 298 298 298 298 298 297 297 297
310 311 314 316 316 315 313 312 312 312 314 313 311 310 310 310 310 312 311 307 302 298 296 295 295 295 295 296 297 297 297 297 298 298 298 298 298 297 297 296 296 296
310 311 313 314 314 313 312 311 311 312 312 312 310 309 310 310 311 311 309 304 299 297 295 295 295 295 295 295 296 296 297 297 297 297 298 298 298 297 296 296 296 295
310 311 312 312 313 312 310 310 311 312 312 311 311 310 309 311 311 310 307 301 297 296 295 295 294 295 295 295 296 296 296 297 297 297 297 297 297 296 295 295 295 295
310 310 310 311 311 310 309 311 312 312 312 311 310 309 309 311 311 308 303 299 296 295 294 294 294 294 295 295 296 296 296 296 297 297 297 296 296 295 295 295 294 294
310 310 309 309 310 309 310 311 312 312 311 309 309 309 310 311 310 305 301 297 295 295 294 294 294 294 294 295 295 296 296 296 296 296 296 296 296 295 294 294 294 293
310 310 309 310 310 310 310 311 311 311 310 308 308 309 310 310 308 303 299 296 295 294 294 294 294 294 294 295 295 295 296 296 296 296 295 295 295 294 294 293 293 292
310 310 309 309 310 310 309 310 310 309 308 307 308 310 310 309 306 300 297 295 294 294 294 293 294 294 294 294 294 295 295 295 295 295 295 295 294 293 292 292 292 291
309 309 308 308 309 311 310 310 309 308 307 308 309 310 310 308 304 298 296 295 294 294 294 293 293 293 294 294 294 294 294 294 294 294 294 294 293 292 292 291 291 291
309 309 307 306 308 310 311 310 310 309 308 309 309 309 310 308 302 297 295 294 294 294 293 293 293 293 293 293 294 294 293 293 293 293 293 292 292 291 291 291 291 290
308 309 308 306 307 308 309 310 310 309 309 310 310 309 309 307 301 296 294 294 294 293 293 293 293 293 293 293 293 293 293 293 293 293 292 292 291 291 291 291 291 290
308 308 308 307 306 306 308 309 309 310 310 310 309 308 307 306 301 295 294 294 293 293 293 293 293 293 292 292 292 292 292 292 292 292 292 291 291 291 291 290 290 291
307 308 307 307 306 306 307 308 309 310 310 309 309 307 305 304 300 295 293 293 293 293 293 292 292 292 292 292 292 292 292 292 292 291 291 291 291 291 290 290 290 290
307 307 307 307 306 306 306 308 309 309 309 309 308 305 303 303 300 295 292 292 292 292 292 292 292 292 292 292 291 292 292 291 291 291 291 291 291 290 290 290 290 290
306 306 306 306 306 306 306 308 309 309 309 308 306 304 302 301 299 295 292 292 292 292 292 292 292 291 291 291 292 292 292 290 290 291 291 290 290 290 290 291 290 290
305 305 305 305 306 305 306 307 308 309 309 308 305 303 301 300 299 295 292 291 291 291 291 291 291 291 291 291 292 292 290 290 291 291 291 290 289 290 291 292 291 289
304 304 305 305 305 305 306 307 308 308 308 308 305 302 300 300 298 296 293 291 291 291 291 291 291 290 290 291 292 290 289 290 291 291 290 289 290 291 292 292 290 289
304 303 304 304 305 305 305 306 307 308 308 307 306 302 300 299 298 296 293 292 291 291 291 290 290 290 290 291 290 289 290 292 291 289 289 289 291 292 292 291 290 289
303 302 303 303 304 305 305 306 307 307 307 307 306 304 301 298 297 296 294 292 291 291 291 290 290 289 290 289 288 289 292 293 290 288 289 291 292 292 291 290 290 289
302 301 302 302 302 303 305 306 306 307 307 306 305 304 302 299 296 295 293 292 291 291 290 290 289 289 289 288 288 291 293 291 289 288 290 292 292 292 291 290 289 289
301 300 300 301 301 302 303 305 305 306 306 305 304 303 302 300 297 295 293 292 290 290 289 289 289 289 288 288 290 293 293 290 289 290 291 292 292 291 291 290 289 289
299 299 299 300 300 301 302 303 304 304 305 304 302 302 301 300 298 296 294 291 289 289 289 289 289 288 288 290 293 294 293 290 290 291 292 292 292 291 290 289 289 288
298 298 298 298 299 299 300 301 302 303 302 302 300 299 298 297 296 295 292 290 289 289 288 288 287 287 289 293 295 294 292 291 291 292 292 292 291 290 289 288 288 287
297 297 297 298 298 299 299 300 300 300 299 298 297 296 295 294 292 291 290 289 288 287 287 286 287 289 292 295 295 293 292 291 292 292 292 291 290 289 288 287 286 286
Wind_Speed
30 30 28 28 28 29 30 30 29 29 27 28 30 30 30 31 31 31 31 30 30 32 32 31 30 29 28 28 27 26 25 25 24 23 21 20 18 16 14 12 10 8
30 29 28 28 29 30 31 30 28 28 28 29 29 27 28 31 32 31 30 31 33 33 33 31 30 30 29 28 28 27 26 26 25 24 22 20 19 17 14 11 9 7
30 29 31 32 32 31 30 29 26 25 27 29 28 27 27 30 33 31 30 33 35 34 34 32 31 30 29 29 28 28 27 26 25 24 22 20 18 16 14 12 9 8
30 30 31 33 34 32 29 28 26 27 30 31 30 27 26 29 33 33 33 35 37 36 35 33 32 31 31 30 29 28 28 26 25 24 22 20 18 16 14 12 10 9
30 30 31 33 34 33 31 30 28 29 31 32 30 28 27 30 34 35 36 38 39 38 36 35 34 33 32 31 31 30 29 27 25 24 22 19 18 17 15 13 12 10
30 30 31 33 34 33 31 31 30 30 31 31 30 30 30 32 34 36 38 41 41 39 38 37 35 34 33 33 32 30 29 27 25 24 22 19 17 16 15 14 13 11
31 31 31 32 33 32 31 32 33 32 32 33 32 30 31 33 34 36 40 42 42 41 39 38 36 35 35 34 32 31 29 27 25 23 21 19 17 17 16 14 13 12
31 31 30 31 31 32 32 33 34 34 35 35 31 30 32 33 34 38 42 44 43 41 40 38 37 36 35 34 33 31 29 27 25 22 20 19 17 16 15 14 13 13
33 32 31 31 31 32 33 33 35 35 36 35 30 30 33 34 35 40 44 44 43 42 40 39 37 36 36 34 32 31 29 27 25 23 20 18 16 16 15 14 13 13
34 35 34 33 33 33 32 33 34 33 34 33 29 30 33 35 37 42 44 44 43 42 40 39 38 37 35 34 32 30 28 26 24 22 20 17 16 15 15 14 14 13
36 36 36 35 35 34 33 33 31 29 28 29 29 31 34 36 39 43 45 44 43 42 40 39 38 36 35 34 32 30 28 26 23 21 18 17 16 16 15 14 14 14
37 38 37 35 35 35 34 33 32 29 27 28 30 32 35 37 40 44 45 44 43 41 40 39 37 36 35 33 32 30 28 25 23 21 19 18 17 17 16 15 16 15
38 38 36 35 34 35 34 33 32 31 30 29 30 32 36 39 42 45 45 44 43 41 40 39 37 36 35 33 31 29 27 25 23 22 21 20 18 17 17 17 17 17
38 38 36 34 33 33 33 33 32 32 31 31 31 33 37 40 43 45 45 44 43 42 41 39 38 36 35 33 31 29 27 25 24 23 22 20 19 19 19 19 19 19
38 38 36 33 33 33 33 33 33 32 32 32 31 33 36 40 43 45 46 45 44 42 41 40 38 37 35 33 31 29 27 26 25 24 22 20 20 20 20 20 21 21
37 38 36 34 32 33 34 33 33 33 32 31 31 33 35 39 43 46 46 45 44 43 41 40 38 37 35 32 30 28 27 26 25 24 22 22 22 22 21 22 23 23
36 37 37 35 32 32 33 33 33 33 32 30 30 32 34 38 42 46 46 44 44 42 41 40 38 36 34 31 29 28 28 27 25 24 23 23 23 23 24 24 24 26
35 37 37 36 33 31 32 33 32 32 31 30 30 31 34 37 41 45 45 44 44 42 40 39 37 35 33 30 29 29 28 26 25 25 25 25 25 26 27 26 26 27
34 36 36 36 35 32 31 31 32 32 31 29 28 30 33 36 40 43 45 44 43 42 41 39 37 35 32 30 30 29 27 26 26 26 26 27 28 29 29 27 27 29
33 35 36 36 36 33 31 30 31 31 30 28 27 29 32 35 39 42 44 43 43 42 41 39 37 34 32 30 29 28 27 27 26 27 28 30 31 32 30 28 28 30
32 34 35 35 35 34 31 31 31 31 30 29 28 28 30 33 37 40 42 42 42 42 41 39 37 34 32 30 28 27 28 28 27 29 32 34 34 32 30 29 30 32
29 32 33 33 33 33 32 32 32 31 30 30 29 29 29 31 35 38 40 41 41 41 40 38 35 33 31 29 28 29 30 28 29 33 35 36 35 32 30 30 32 34
26 29 31 31 31 31 31 31 30 30 30 30 30 29 29 30 31 34 36 39 39 39 38 36 33 32 31 29 30 31 30 29 31 34 36 36 35 32 31 32 33 35
22 24 26 27 27 27 27 27 28 29 29 29 28 27 26 26 27 30 33 35 36 35 34 33 33 31 29 29 31 33 31 30 31 34 36 36 34 32 32 33 34 36
17 19 21 22 22 22 23 24 25 25 24 24 23 22 22 23 24 26 28 30 31 31 32 32 30 28 27 31 34 33 31 30 31 34 35 34 33 32 33 35 37 39
11 12 14 15 15 16 18 19 19 19 18 17 17 17 18 19 19 21 22 24 25 27 27 28 28 29 31 34 34 31 30 30 31 33 33 32 33 35 37 38 40 40
Wind_Direction
226 225 227 226 223 223 226 230 234 240 241 232 224 220 214 211 212 213 215 213 203 196 193 191 191 191 191 192 190 187 184 182 181 180 179 178 177 179 180 181 181 181
227 224 224 226 223 221 226 234 239 239 233 228 225 224 219 215 215 219 220 212 201 196 194 193 193 193 193 194 191 188 186 184 183 182 183 183 183 184 187 188 190 194
228 224 222 223 222 223 230 235 234 228 223 224 225 225 225 221 219 222 222 212 201 197 195 195 196 196 196 195 192 190 188 187 187 186 186 188 189 191 193 196 201 209
228 224 221 222 225 231 236 235 229 221 218 222 227 228 229 225 222 222 220 210 201 198 197 197 198 198 197 196 194 192 191 191 191 192 192 193 194 197 200 204 212 221
229 225 222 224 229 234 235 232 227 222 221 227 234 235 232 225 221 221 216 207 200 199 199 199 200 200 199 198 195 194 194 194 195 196 199 199 199 202 205 211 220 230
228 226 225 226 230 234 233 229 226 225 227 233 240 241 232 223 220 219 213 205 200 199 200 200 202 202 200 199 198 197 197 198 199 200 202 204 206 208 211 218 226 236
228 227 227 227 230 231 229 226 224 225 230 238 242 239 227 220 219 217 210 204 201 201 201 202 204 203 202 201 200 199 200 202 204 204 205 207 210 215 220 225 232 240
229 229 228 228 229 229 226 226 225 227 236 241 238 229 222 218 218 214 208 205 203 202 203 204 205 205 204 203 202 202 203 205 207 209 210 212 215 221 227 233 239 245
230 230 230 229 230 229 227 227 228 233 242 242 232 224 220 217 215 212 208 206 204 204 205 206 207 207 206 206 205 206 207 209 211 212 214 217 221 227 233 239 245 250
231 232 231 230 229 230 230 230 234 241 243 237 230 225 219 216 214 211 209 207 206 206 207 207 208 208 208 209 208 209 212 214 216 216 219 222 226 233 238 244 250 254
233 234 233 231 228 229 232 233 238 244 239 232 231 227 219 216 214 210 209 209 208 208 209 209 210 210 211 211 211 213 215 217 220 222 225 228 232 235 239 246 253 257
236 235 235 233 229 228 231 233 237 242 239 235 235 228 220 216 213 211 211 211 210 211 211 212 212 212 213 214 215 216 217 219 222 225 228 232 235 238 243 250 255 258
239 238 239 237 231 228 230 233 236 239 241 240 237 230 222 216 213 213 212 212 213 213 214 215 215 215 216 217 218 219 221 224 226 229 231 233 237 242 249 253 256 261
241 241 242 240 234 230 229 232 234 238 240 240 236 231 223 217 214 214 214 214 215 215 216 217 216 217 218 218 220 222 224 228 231 233 235 237 243 249 252 255 260 265
242 243 243 240 235 230 229 230 233 236 239 239 236 230 224 218 215 215 216 216 216 216 217 218 218 219 220 221 223 224 227 231 234 236 239 243 249 250 253 259 264 265
242 242 243 241 235 230 229 229 232 235 238 238 236 231 225 220 217 217 218 218 219 219 219 219 220 221 222 223 225 228 232 235 236 239 244 248 250 251 256 263 266 266
242 241 242 241 236 231 228 229 231 235 237 238 236 232 227 222 220 219 219 220 222 222 222 222 223 223 223 224 227 232 234 235 239 244 248 250 251 252 259 266 267 267
242 240 240 240 237 232 229 228 230 234 237 237 236 232 227 223 222 222 222 223 224 225 226 226 226 226 225 227 232 235 234 236 244 249 249 250 250 254 262 268 268 266
242 240 239 238 236 234 231 229 231 235 237 236 235 232 227 224 223 223 224 225 226 227 228 229 229 228 228 231 236 235 235 242 249 251 249 249 253 260 267 270 267 265
242 240 238 236 236 235 233 232 232 235 238 237 235 232 228 225 224 224 225 226 228 229 230 231 231 230 230 234 235 234 239 247 251 249 249 252 259 265 269 269 267 266
241 239 237 236 235 234 234 233 233 235 237 237 235 233 231 228 227 226 227 229 230 231 232 232 232 231 233 234 233 237 245 249 248 248 252 260 266 268 268 269 268 268
240 238 237 236 234 233 233 234 235 235 237 238 237 236 235 232 230 229 229 230 231 232 233 233 232 233 234 233 235 244 250 249 248 252 259 266 268 268 269 271 270 271
240 238 237 236 235 233 233 235 238 238 238 239 239 239 238 237 236 234 233 233 233 233 233 234 235 235 232 232 242 251 251 248 252 259 265 269 269 270 271 272 273 274
239 238 238 237 236 235 234 235 238 240 241 241 242 244 244 244 243 240 237 236 234 234 234 235 234 230 229 240 252 255 250 249 256 264 269 270 271 272 273 273 275 276
236 236 236 236 236 235 233 234 237 241 244 244 244 245 245 245 244 242 239 237 235 234 233 232 228 228 238 253 259 254 249 251 260 267 270 271 273 275 276 276 277 277
221 224 226 227 228 229 230 232 235 237 240 241 240 240 240 241 241 239 237 235 234 232 230 228 229 237 250 259 259 254 252 256 263 268 270 272 276 278 279 279 278 277